Live-Position
3D-Globus wird geladen...
Über Starlink 2101
Group: 3 satellites
Beschreibung wird geladen...
Nächste Überflüge
Passes for default location (London). Set your location on the main map for personalized predictions.
Höhenverlauf
Loading altitude history...
No altitude history available
Zweizeiliger Elementsatz
1 47381U 21005AJ 26104.32507979 .00001343 00000-0 58890-4 0 9991
2 47381 53.1569 231.6151 0001265 93.2303 266.8842 15.29348137288846
Epoch: 14. Apr. 2026 •
Age: 13 hours
Aktueller Status
Höhe 486.7 km
Geschwindigkeit 7.62 km/s
Subsatellitenpunkt -28.43°S,
89.62°W
Startdatum 20. Jan. 2021
Alter 5.2 years
Typ internet
Startgruppe
Falcon 9 •
Launch 16 •
42 satellites
Starlink 2017
47351
Starlink 2034 47352
Starlink 2045 47353
Starlink 2046 47354
Starlink 2047 47355
Starlink 2049 47356
Starlink 2050 47357
Starlink 2055 47358
Starlink 2071 47361
Starlink 2076 47362
Starlink 2081 47366
Starlink 2082 47367
Starlink 2084 47368
Starlink 2088 47371
Starlink 2092 47373
Starlink 2093 47374
Starlink 2094 47375
Starlink 2096 47376
Starlink 2097 47377
Starlink 2098 47378
...and 21 more
Technische Details
Klassifizierung Payload
Masse 260.00 kg
Trockenmasse 248.00 kg
Gesamtmasse 260.00 kg
Länge 0.20 m
Durchmesser 2.80 m
Spannweite 9.00 m
Form Box + pan
Hersteller SPXS
Bus-Typ Starlink
Phasenstatus In Orbit
Besitzer/Staat SPXS/US
Most Searched
Loading...